                ,  0.865,  0.965,  1.065,  1.165,  1.265,  1.365,  1.465,  1.565,  1.665,  1.765,  1.865,  1.965,  2.065,  2.165,  2.265,  2.365,  2.465,  2.565,  2.665,  2.765,  2.865,  2.965,  3.065,  3.165,  3.265,  3.365,  3.465,  3.565,  3.665,  3.765,  3.865,  3.965,  4.065,  4.165,  4.265,  4.365,  4.465,  4.565,  4.665,  4.765,  4.865,  4.965,  5.065,  5.165,  5.265,  5.365,  5.465,  5.565,  5.665,  5.765,  5.865,  5.965
1999/02/26 00:00,  999.0,  999.0,  999.0,  -61.9,  -59.3,  -57.4,  -59.1,  -59.4,  -59.2,  -59.1,  -60.8,  -59.1,  -60.3,  -60.4,  -59.8,  -58.9,  -58.4,  -60.2,  -61.1,  -59.8,  -61.1,  -58.7,  -60.8,  -58.6,  -61.4,  -60.8,  -60.5,  -59.2,  -59.8,  -60.8,  -60.9,  -59.6,  -59.9,  -60.4,  -60.3,  -59.9,  -60.9,  -60.5,  -62.6,  -59.9,  -59.9,  -60.4,  -61.0,  -59.5,  -59.6,  -60.7,  -61.4,  -59.4,  -60.0,  -60.8,  -60.7,  -59.7
1999/02/26 00:10,  999.0,  999.0,  999.0,  -60.1,  -58.1,  -56.5,  -58.1,  -58.4,  -57.8,  -58.0,  -59.8,  -58.1,  -59.0,  -58.4,  -59.0,  -57.7,  -57.9,  -57.6,  -58.9,  -57.8,  -59.6,  -58.5,  -60.0,  -58.5,  -59.7,  -58.2,  -57.9,  -58.2,  -60.1,  -59.2,  -59.8,  -58.2,  -60.2,  -59.4,  -59.5,  -58.4,  -60.1,  -59.2,  -60.2,  -57.9,  -59.8,  -59.2,  -59.7,  -58.0,  -59.0,  -59.0,  -59.8,  -58.1,  -60.3,  -58.8,  -59.8,  -58.6
1999/02/26 00:20,  999.0,  999.0,  999.0,  -61.8,  -57.5,  -56.6,  -58.1,  -56.7,  -56.9,  -57.8,  -59.1,  -57.6,  -56.5,  -57.8,  -57.7,  -56.2,  -57.5,  -57.1,  -57.9,  -56.5,  -57.9,  -58.5,  -59.2,  -57.2,  -58.2,  -58.1,  -59.3,  -57.2,  -59.2,  -57.2,  -59.0,  -57.6,  -58.1,  -58.3,  -59.2,  -56.8,  -59.0,  -58.7,  -58.8,  -57.4,  -59.0,  -58.4,  -58.7,  -57.1,  -58.6,  -57.6,  -59.1,  -57.6,  -59.2,  -58.5,  -59.2,  -57.2
1999/02/26 00:30,  -66.2,  999.0,  999.0,  -60.1,  -58.9,  -56.8,  -57.9,  -57.2,  -57.2,  -56.5,  -57.2,  -57.2,  -58.6,  -57.6,  -58.1,  -56.7,  -57.8,  -57.2,  -58.8,  -57.1,  -58.1,  -57.9,  -58.5,  -56.7,  -58.9,  -58.3,  -59.2,  -57.3,  -58.3,  -57.9,  -58.8,  -57.2,  -59.0,  -58.8,  -59.0,  -56.7,  -58.0,  -57.7,  -58.9,  -57.4,  -58.6,  -58.5,  -59.1,  -57.0,  -58.5,  -58.1,  -58.7,  -57.4,  -59.1,  -57.7,  -58.6,  -58.0
1999/02/26 00:40,  999.0,  999.0,  999.0,  -59.3,  -57.3,  -55.5,  -56.8,  -55.5,  -55.4,  -56.3,  -58.1,  -56.5,  -57.5,  -57.5,  -57.4,  -56.4,  -58.2,  -57.0,  -58.2,  -57.0,  -58.5,  -57.5,  -58.8,  -56.8,  -58.7,  -57.6,  -58.7,  -56.6,  -58.5,  -57.8,  -58.9,  -56.9,  -58.9,  -57.9,  -58.9,  -56.9,  -58.6,  -57.7,  -59.2,  -57.2,  -58.9,  -58.0,  -58.9,  -56.9,  -58.7,  -57.8,  -58.8,  -57.2,  -58.6,  -58.4,  -58.7,  -56.8
1999/02/26 00:50,  999.0,  999.0,  999.0,  -59.2,  -57.9,  -55.8,  -56.6,  -56.9,  -56.1,  -57.1,  -58.5,  -57.1,  -56.8,  -57.8,  -58.9,  -56.7,  -57.8,  -57.2,  -58.2,  -57.4,  -58.9,  -58.4,  -58.6,  -57.6,  -58.5,  -58.3,  -59.3,  -57.6,  -58.4,  -57.8,  -59.2,  -57.7,  -58.3,  -58.4,  -59.5,  -57.7,  -58.3,  -58.1,  -59.2,  -57.3,  -58.3,  -58.6,  -58.9,  -57.5,  -58.7,  -58.4,  -59.2,  -57.4,  -58.7,  -58.2,  -59.0,  -57.3
1999/02/26 01:00,  999.0,  999.0,  999.0,  999.0,  -59.1,  -56.0,  -57.3,  -57.2,  -56.7,  -56.3,  -58.4,  -56.5,  -57.9,  -57.3,  -57.0,  -57.8,  -57.4,  -58.2,  -58.5,  -57.1,  -58.2,  -56.9,  -58.6,  -57.3,  -59.2,  -57.7,  -58.8,  -57.7,  -59.0,  -58.4,  -59.1,  -58.0,  -59.0,  -58.2,  -59.0,  -57.8,  -59.0,  -57.4,  -59.5,  -57.4,  -59.5,  -58.0,  -59.3,  -57.5,  -58.7,  -58.6,  -58.9,  -57.4,  -59.3,  -58.4,  -58.8,  -57.3
1999/02/26 01:10,  999.0,  999.0,  999.0,  -59.0,  -57.8,  -56.3,  -56.9,  -57.4,  -56.7,  -56.1,  -58.1,  -56.5,  -58.2,  -57.7,  -58.6,  -56.8,  -58.1,  -57.8,  -58.2,  -57.8,  -58.6,  -58.2,  -58.9,  -57.8,  -59.1,  -58.4,  -59.4,  -57.2,  -58.8,  -58.6,  -59.0,  -57.4,  -58.9,  -58.5,  -58.7,  -58.1,  -58.8,  -58.6,  -59.1,  -58.0,  -58.6,  -58.1,  -59.0,  -57.7,  -58.6,  -58.0,  -59.0,  -58.0,  -59.2,  -58.4,  -59.4,  -57.6
1999/02/26 01:20,  999.0,  999.0,  999.0,  -59.4,  -57.7,  -56.6,  -57.4,  -57.0,  -57.0,  -57.6,  -57.8,  -56.8,  -58.0,  -57.5,  -57.7,  -56.9,  -57.7,  -57.7,  -58.5,  -57.1,  -58.7,  -58.4,  -59.0,  -57.4,  -58.4,  -58.1,  -58.3,  -57.5,  -59.1,  -58.4,  -59.3,  -57.6,  -58.9,  -58.2,  -59.0,  -58.0,  -59.2,  -58.4,  -59.3,  -57.6,  -59.0,  -58.5,  -59.1,  -57.4,  -58.6,  -58.7,  -59.0,  -57.7,  -58.7,  -58.1,  -58.9,  -57.5
1999/02/26 01:30,  999.0,  999.0,  999.0,  -59.4,  -58.3,  -56.2,  -58.1,  -57.2,  -57.6,  -57.6,  -58.1,  -56.5,  -58.2,  -57.6,  -58.4,  -56.7,  -58.1,  -57.9,  -58.6,  -57.3,  -58.7,  -58.3,  -59.4,  -57.6,  -58.7,  -58.0,  -59.2,  -57.3,  -58.6,  -58.5,  -58.9,  -57.5,  -58.9,  -58.4,  -59.1,  -57.6,  -59.0,  -58.1,  -59.1,  -57.6,  -59.4,  -58.7,  -59.3,  -57.5,  -59.0,  -58.2,  -59.1,  -57.2,  -58.5,  -58.1,  -59.1,  -57.1
1999/02/26 01:40,  999.0,  999.0,  999.0,  -58.3,  -56.9,  -55.8,  -58.4,  -57.2,  -57.5,  -57.5,  -59.2,  -57.2,  -57.8,  -57.7,  -58.5,  -55.4,  -58.0,  -58.2,  -58.8,  -57.0,  -58.8,  -58.0,  -59.6,  -57.4,  -58.4,  -58.3,  -58.5,  -57.1,  -58.6,  -58.8,  -58.8,  -57.7,  -58.0,  -59.0,  -58.5,  -57.7,  -58.6,  -57.8,  -59.1,  -56.7,  -59.1,  -58.0,  -58.3,  -57.1,  -58.9,  -57.9,  -58.7,  -58.0,  -58.5,  -58.2,  -59.1,  -57.1
1999/02/26 01:50,  999.0,  999.0,  999.0,  -60.5,  -57.6,  -56.8,  -56.7,  -56.8,  -57.5,  -57.0,  -58.2,  -56.7,  -57.7,  -57.7,  -58.5,  -57.2,  -58.5,  -58.2,  -58.3,  -57.2,  -58.4,  -57.9,  -59.3,  -57.1,  -58.8,  -58.4,  -58.5,  -56.6,  -58.7,  -59.0,  -59.0,  -57.7,  -59.3,  -58.1,  -58.6,  -57.2,  -58.9,  -58.2,  -58.5,  -56.9,  -58.8,  -57.8,  -58.9,  -57.3,  -58.4,  -58.5,  -59.0,  -57.3,  -58.6,  -57.8,  -58.8,  -57.1
1999/02/26 02:00,  999.0,  999.0,  999.0,  -57.5,  -57.9,  -56.2,  -57.6,  -57.7,  -57.7,  -57.4,  -59.0,  -56.8,  -58.9,  -57.7,  -58.0,  -57.1,  -58.9,  -58.4,  -58.9,  -57.8,  -58.8,  -58.3,  -59.2,  -57.6,  -58.6,  -58.2,  -59.2,  -57.1,  -58.8,  -58.4,  -59.0,  -57.3,  -58.6,  -58.3,  -59.1,  -57.3,  -58.2,  -57.6,  -58.7,  -57.5,  -59.0,  -58.8,  -58.8,  -57.7,  -59.0,  -58.3,  -59.2,  -57.7,  -59.9,  -58.4,  -58.8,  -57.0
1999/02/26 02:10,  999.0,  999.0,  999.0,  -60.0,  -57.1,  -55.7,  -57.1,  -57.1,  -56.7,  -57.3,  -58.8,  -56.8,  -58.0,  -58.0,  -58.5,  -57.4,  -58.5,  -58.3,  -58.8,  -57.8,  -58.5,  -58.2,  -58.8,  -57.6,  -58.7,  -58.2,  -59.0,  -57.6,  -58.8,  -58.6,  -58.8,  -57.9,  -59.1,  -58.4,  -59.1,  -57.8,  -58.5,  -57.5,  -58.2,  -57.3,  -58.5,  -57.8,  -58.9,  -57.1,  -58.1,  -58.1,  -58.1,  -57.0,  -57.8,  -57.3,  -57.6,  -56.6
1999/02/26 02:20,  999.0,  999.0,  999.0,  -61.4,  -58.5,  -56.8,  -57.2,  -56.9,  -57.2,  -57.4,  -58.5,  -56.4,  -58.9,  -58.0,  -58.5,  -57.7,  -58.9,  -58.4,  -59.3,  -57.6,  -58.9,  -58.5,  -59.7,  -57.7,  -59.0,  -58.5,  -59.2,  -57.7,  -59.1,  -59.1,  -59.4,  -58.2,  -59.0,  -58.6,  -58.9,  -57.2,  999.0,  -56.6,  -57.8,  -57.2,  -57.9,  -57.9,  -58.8,  -57.4,  -58.8,  -58.3,  -58.8,  -57.7,  -59.0,  -58.6,  -58.8,  -58.0
1999/02/26 02:30,  999.0,  999.0,  999.0,  -58.9,  -51.0,  -48.8,  -49.6,  -53.0,  -53.6,  -56.3,  -55.5,  -56.8,  -57.8,  -57.8,  -59.7,  -60.7,  -58.0,  -56.7,  -57.5,  -57.3,  -59.0,  -57.8,  -58.6,  -58.3,  -58.7,  -58.3,  -57.7,  -56.4,  -58.7,  -58.9,  -59.3,  -57.0,  -59.7,  -58.6,  -59.1,  -57.9,  -58.9,  -57.9,  -58.7,  -57.2,  -59.3,  -58.8,  -59.4,  -57.0,  -59.3,  -58.9,  -59.1,  -57.3,  -58.5,  -58.7,  -59.1,  -57.2
1999/02/26 02:40,  999.0,  999.0,  999.0,  -59.3,  -57.0,  -55.1,  -56.9,  -57.3,  -56.9,  -57.3,  -58.3,  -57.4,  -58.5,  -57.7,  -58.1,  -58.2,  -58.6,  -58.9,  -58.8,  -57.6,  -59.3,  -58.7,  -59.0,  -57.8,  -58.6,  -59.0,  -59.5,  -58.0,  -59.1,  -59.3,  -59.1,  -58.0,  -59.1,  -58.7,  -58.7,  -58.0,  -59.2,  -58.6,  -59.5,  -57.9,  -58.9,  -58.7,  -59.2,  -57.4,  -58.5,  -58.8,  -59.2,  -58.3,  -58.9,  -58.9,  -59.3,  -57.8
1999/02/26 02:50,  999.0,  999.0,  999.0,  -57.5,  -56.4,  -54.9,  -57.0,  -57.2,  -56.8,  -57.2,  -59.1,  -57.0,  -58.6,  -58.0,  -58.7,  -57.1,  -59.1,  -58.3,  -58.9,  -57.4,  -58.7,  -58.8,  -59.6,  -57.8,  -58.8,  -58.7,  -59.3,  -57.4,  -59.5,  -58.5,  -59.0,  -57.6,  -59.3,  -58.4,  -59.4,  -58.5,  -59.3,  -58.6,  -59.5,  -57.5,  -59.3,  -58.9,  -58.5,  -57.1,  -58.8,  -58.5,  -59.2,  -57.4,  -59.1,  -58.8,  -59.0,  -57.3
1999/02/26 03:00,  999.0,  999.0,  999.0,  -61.7,  -57.3,  -56.2,  -57.2,  -57.2,  -57.3,  -58.0,  -58.6,  -57.4,  -58.2,  -58.1,  -58.7,  -57.5,  -58.9,  -58.1,  -58.4,  -57.9,  -58.7,  -58.0,  -58.5,  -58.2,  -58.3,  -58.1,  -58.9,  -58.0,  -59.2,  -58.0,  -58.9,  -58.3,  -58.8,  -58.5,  -58.8,  -57.3,  -58.6,  -58.9,  -59.4,  -58.3,  -58.8,  -58.3,  -58.9,  -57.8,  -59.0,  -58.1,  -58.9,  -58.0,  -58.9,  -57.9,  -59.1,  -57.5
1999/02/26 03:10,  999.0,  -69.9,  999.0,  -62.0,  -58.1,  -55.1,  -57.8,  -56.5,  -56.6,  -57.3,  -58.7,  -57.7,  -58.2,  -58.1,  -58.7,  -57.4,  -58.6,  -57.9,  -58.3,  -57.7,  -59.2,  -59.0,  -59.1,  -57.9,  -58.5,  -58.4,  -58.8,  -57.4,  -58.5,  -57.8,  -59.1,  -57.2,  -59.3,  -58.7,  -58.9,  -57.9,  -58.5,  -58.2,  -58.8,  -57.9,  -59.2,  -58.8,  -59.3,  -57.8,  -59.5,  -58.5,  -58.9,  -56.9,  -58.9,  -58.7,  -58.0,  -57.9
1999/02/26 03:20,  999.0,  999.0,  999.0,  -65.3,  -57.8,  -56.4,  -57.0,  -57.2,  -56.5,  -57.4,  -58.8,  -57.3,  -58.9,  -57.7,  -58.2,  -57.6,  -58.9,  -58.2,  -58.6,  -57.6,  -58.5,  -58.6,  -58.8,  -58.0,  -58.8,  -58.3,  -58.9,  -57.5,  -58.8,  -58.2,  -59.2,  -57.7,  -59.1,  -58.6,  -59.0,  -58.0,  -59.2,  -58.1,  -58.6,  -57.5,  -59.2,  -58.1,  -58.9,  -57.5,  -58.6,  -58.3,  -59.2,  -57.8,  -59.0,  -58.5,  -58.6,  -57.6
1999/02/26 03:30,  999.0,  999.0,  999.0,  -58.5,  -57.3,  -54.8,  -55.9,  -57.3,  -57.0,  -57.4,  -58.2,  -56.5,  -58.2,  -57.7,  -58.9,  -57.4,  -58.8,  -58.0,  -58.4,  -56.8,  -58.8,  -58.4,  -59.8,  -57.4,  -58.7,  -58.1,  -59.2,  -57.1,  -59.1,  -58.3,  -59.2,  -57.5,  -58.8,  -58.5,  -59.4,  -57.7,  -58.9,  -57.8,  -59.4,  -57.4,  -59.1,  -58.3,  -59.3,  -56.8,  -58.7,  -58.3,  -58.8,  -57.4,  -58.8,  -58.1,  -59.4,  -57.3
1999/02/26 03:40,  999.0,  999.0,  999.0,  -60.0,  -57.9,  -56.2,  -57.3,  -57.2,  -57.2,  -57.5,  -58.4,  -57.2,  -58.1,  -57.6,  -58.4,  -57.4,  -58.4,  -58.0,  -58.8,  -57.2,  -58.7,  -58.1,  -59.5,  -57.5,  -58.3,  -58.5,  -58.6,  -57.3,  -59.5,  -58.6,  -59.1,  -57.5,  -59.1,  -58.4,  -59.0,  -57.8,  -59.0,  -58.3,  -59.5,  -57.5,  -59.4,  -58.8,  -58.9,  -57.2,  -59.1,  -58.3,  -58.9,  -57.4,  -58.8,  -58.4,  -59.2,  -57.9
1999/02/26 03:50,  999.0,  999.0,  999.0,  -58.4,  -57.4,  -55.9,  -57.0,  -57.4,  -57.1,  -57.6,  -58.4,  -57.2,  -58.8,  -58.3,  -58.5,  -57.7,  -58.6,  -58.8,  -58.4,  -57.1,  -58.8,  -58.2,  -59.0,  -58.0,  -59.4,  -58.6,  -58.8,  -57.5,  -58.8,  -58.3,  -59.1,  -57.8,  -58.8,  -59.0,  -59.3,  -57.9,  -58.8,  -58.2,  -58.7,  -58.1,  -59.2,  -59.1,  -59.0,  -57.6,  -58.7,  -58.4,  -59.1,  -57.9,  -59.1,  -58.3,  -59.2,  -58.2
1999/02/26 04:00,  999.0,  999.0,  999.0,  -60.6,  -57.3,  -55.8,  -57.0,  -57.2,  -56.9,  -57.8,  -58.5,  -57.2,  -58.2,  -58.0,  -58.2,  -57.3,  -58.9,  -58.1,  -58.9,  -57.8,  -58.6,  -58.0,  -58.9,  -57.3,  -58.7,  -58.3,  -59.0,  -57.5,  -59.0,  -58.0,  -59.1,  -58.1,  -59.0,  -59.1,  -58.8,  -58.0,  -59.3,  -58.4,  -58.8,  -57.7,  -58.9,  -58.4,  -59.0,  -57.4,  -58.7,  -58.2,  -58.9,  -57.6,  -59.2,  -58.4,  -59.3,  -57.8
1999/02/26 04:10,  999.0,  999.0,  999.0,  -58.6,  -57.0,  -55.2,  -56.8,  -56.1,  -56.2,  -57.0,  -58.1,  -57.0,  -58.2,  -58.0,  -58.3,  -57.8,  -58.7,  -58.5,  -59.0,  -57.5,  -58.9,  -58.8,  -59.4,  -57.7,  -58.9,  -58.5,  -59.2,  -58.0,  -59.0,  -58.5,  -59.0,  -58.0,  -59.1,  -58.4,  -59.3,  -57.9,  -59.0,  -58.3,  -59.3,  -57.6,  -58.7,  -58.6,  -59.2,  -57.7,  -58.6,  -58.3,  -58.8,  -57.9,  -59.0,  -58.2,  -59.0,  -57.8
1999/02/26 04:20,  999.0,  999.0,  999.0,  999.0,  -57.2,  -56.2,  -57.3,  -56.9,  -56.3,  -57.7,  -58.2,  -57.2,  -58.2,  -58.0,  -58.6,  -57.7,  -58.7,  -58.4,  -59.2,  -57.8,  -58.9,  -57.9,  -58.5,  -58.2,  -59.6,  -58.7,  -58.7,  -58.0,  -58.7,  -58.6,  -58.3,  -58.4,  -58.7,  -58.9,  -58.9,  -57.6,  -58.1,  -58.5,  -59.3,  -58.3,  -59.0,  -58.6,  -59.0,  -58.0,  -58.8,  -58.7,  -58.9,  -57.9,  -58.9,  -58.6,  -59.0,  -58.1
1999/02/26 04:30,  999.0,  999.0,  999.0,  -57.7,  -56.0,  -54.4,  -55.7,  -56.3,  -55.6,  -57.0,  -58.1,  -56.7,  -58.5,  -57.4,  -58.1,  -57.4,  -58.1,  -57.9,  -58.6,  -56.9,  -58.2,  -58.5,  -59.5,  -57.7,  -58.7,  -58.3,  -59.2,  -57.3,  -58.4,  -58.2,  -58.8,  -57.9,  -58.4,  -58.5,  -59.2,  -58.1,  -58.7,  -57.8,  -59.3,  -57.8,  -58.5,  -58.0,  -59.2,  -57.4,  -58.5,  -57.7,  -59.1,  -57.7,  -58.5,  -58.2,  -59.0,  -57.5
1999/02/26 04:40,  999.0,  999.0,  999.0,  -62.4,  -58.2,  -56.4,  -56.2,  -56.1,  -56.0,  -55.3,  -57.5,  -56.2,  -57.8,  -57.5,  -57.9,  -57.4,  -58.6,  -58.2,  -58.7,  -57.4,  -58.4,  -58.1,  -58.8,  -57.4,  -58.3,  -58.0,  -58.8,  -57.1,  -58.6,  -58.1,  -59.0,  -57.1,  -58.4,  -57.9,  -58.9,  -57.1,  -58.3,  -57.9,  -58.6,  -57.1,  -58.3,  -58.0,  -58.5,  -57.0,  -58.7,  -57.9,  -59.0,  -57.8,  -59.0,  -58.2,  -58.5,  -57.8
1999/02/26 04:50,  999.0,  999.0,  999.0,  -56.0,  -57.5,  -55.7,  -56.8,  -57.1,  -56.5,  -57.0,  -57.9,  -56.9,  -58.0,  -58.1,  -58.6,  -57.3,  -58.2,  -58.3,  -59.1,  -57.3,  -58.6,  -57.9,  -59.5,  -57.9,  -58.6,  -58.5,  -59.3,  -57.2,  -58.9,  -58.2,  -58.8,  -57.1,  -58.3,  -58.1,  -58.8,  -57.6,  -59.0,  -57.8,  -59.2,  -57.6,  -59.3,  -58.0,  -58.6,  -57.7,  -58.7,  -58.2,  -58.8,  -58.2,  -58.5,  -58.8,  -58.8,  -57.2
1999/02/26 05:00,  999.0,  999.0,  -67.9,  999.0,  -57.4,  -55.4,  -56.6,  -56.2,  -56.0,  -57.1,  -57.1,  -56.7,  -58.0,  -56.9,  -58.2,  -56.5,  -58.3,  -58.3,  -58.6,  -57.6,  -59.1,  -58.5,  -58.3,  -57.4,  -58.4,  -58.6,  -58.5,  -57.3,  -58.6,  -57.9,  -58.2,  -56.9,  -58.3,  -58.0,  -58.6,  -57.4,  -58.5,  -58.2,  -58.9,  -57.1,  -58.8,  -58.0,  -58.7,  -57.2,  -58.8,  -58.5,  -59.0,  -57.1,  -58.5,  -58.5,  -59.2,  -57.2
1999/02/26 05:10,  999.0,  999.0,  999.0,  -59.0,  -57.3,  -55.0,  -56.8,  -56.7,  -56.1,  -56.1,  -57.8,  -56.6,  -57.9,  -57.1,  -57.9,  -57.2,  -58.1,  -57.6,  -58.4,  -56.9,  -59.2,  -58.2,  -58.4,  -57.4,  -58.4,  -58.2,  -58.9,  -56.6,  -57.9,  -58.1,  -58.3,  -57.9,  -59.0,  -58.6,  -59.4,  -57.8,  -58.8,  -58.0,  -58.5,  -57.5,  -59.1,  -58.0,  -59.0,  -57.3,  -58.6,  -58.3,  -58.6,  -57.6,  -58.4,  -58.0,  -58.5,  -56.8
1999/02/26 05:20,  999.0,  999.0,  999.0,  -57.2,  -56.7,  -55.8,  -56.8,  -56.5,  -55.8,  -57.0,  -57.8,  -56.8,  -58.2,  -57.5,  -58.0,  -57.0,  -58.6,  -58.1,  -58.5,  -57.1,  -58.6,  -57.8,  -58.8,  -56.6,  -58.9,  -58.3,  -58.9,  -56.9,  -58.3,  -58.1,  -58.9,  -57.8,  -58.3,  -57.9,  -59.0,  -57.4,  -58.3,  -57.8,  -59.0,  -57.5,  -58.9,  -58.0,  -58.5,  -57.0,  -58.4,  -58.1,  -58.5,  -57.4,  -58.6,  -58.2,  -58.6,  -57.2
1999/02/26 05:30,  999.0,  999.0,  999.0,  -59.1,  -58.0,  -54.8,  -56.1,  -55.2,  -53.3,  -56.3,  -55.4,  -56.8,  -56.8,  -57.1,  -57.6,  -56.7,  -58.7,  -58.2,  -58.3,  -57.1,  -59.1,  -58.2,  -58.6,  -57.2,  -58.6,  -58.0,  -58.5,  -57.3,  -58.0,  -58.0,  -58.6,  -56.9,  -58.8,  -58.1,  -59.0,  -57.4,  -58.8,  -58.3,  -59.0,  -57.5,  -58.6,  -58.0,  -58.7,  -56.8,  -58.5,  -58.1,  -58.7,  -57.5,  -58.0,  -58.4,  -58.9,  -57.4
1999/02/26 05:40,  999.0,  999.0,  999.0,  -57.6,  -57.6,  -54.3,  -56.3,  -56.5,  -55.5,  -54.5,  -56.6,  -56.4,  -58.0,  -57.3,  -58.0,  -57.1,  -58.2,  -57.7,  -58.2,  -56.7,  -58.3,  -58.3,  -58.8,  -57.1,  -58.6,  -58.1,  -58.9,  -57.2,  -58.8,  -57.9,  -58.8,  -56.8,  -58.4,  -58.3,  -58.9,  -57.5,  -58.8,  -58.0,  -59.0,  -57.4,  -58.5,  -58.2,  -59.2,  -56.9,  -58.3,  -57.9,  -59.1,  -57.0,  -58.1,  -57.9,  -58.6,  -56.5
1999/02/26 05:50,  999.0,  999.0,  999.0,  -58.6,  -56.9,  -54.4,  -56.0,  -56.4,  -53.3,  -52.3,  -50.2,  -50.7,  -52.2,  -53.9,  -52.4,  -54.4,  -57.1,  -56.8,  -57.8,  -56.8,  -58.2,  -57.9,  -58.6,  -57.2,  -58.6,  -57.8,  -58.8,  -57.2,  -58.3,  -58.0,  -58.3,  -57.2,  -58.4,  -57.8,  -58.5,  -57.3,  -58.2,  -57.8,  -58.8,  -57.0,  -58.5,  -57.2,  -58.3,  -56.8,  -58.4,  -58.0,  -58.9,  -56.9,  -58.0,  -57.8,  -58.9,  -57.2
1999/02/26 06:00,  999.0,  999.0,  999.0,  -53.0,  -55.1,  -53.8,  -50.6,  -54.0,  -54.7,  -49.8,  -51.6,  -50.1,  -46.2,  -49.5,  -50.2,  -53.1,  -55.7,  -54.1,  -58.2,  -57.2,  -57.7,  -57.1,  -57.2,  -58.1,  -58.2,  -58.1,  -58.9,  -58.0,  -59.0,  -57.7,  -57.7,  -58.2,  -58.7,  -57.7,  -57.8,  -57.9,  -58.9,  -57.9,  -58.7,  -57.4,  -58.5,  -57.4,  -57.9,  -57.6,  -57.9,  -57.3,  -58.3,  -56.2,  -57.8,  -58.2,  -58.2,  -58.3
1999/02/26 06:10,  999.0,  999.0,  999.0,  -47.7,  -56.4,  -52.7,  -56.1,  -54.0,  -55.6,  -55.7,  -56.4,  -56.2,  -53.9,  -57.6,  -57.8,  -56.5,  -57.0,  -57.6,  -58.7,  -56.9,  -58.5,  -58.0,  -59.0,  -57.5,  -58.3,  -58.0,  -59.3,  -57.1,  -59.2,  -57.2,  -59.3,  -56.9,  -58.6,  -58.3,  -59.3,  -58.0,  -58.3,  -57.6,  -59.0,  -56.9,  -58.3,  -58.0,  -58.6,  -57.2,  -57.6,  -58.9,  -58.9,  -57.1,  -58.3,  -57.9,  -58.7,  -57.3
1999/02/26 06:20,  999.0,  999.0,  999.0,  -57.7,  -55.1,  -54.5,  -56.6,  -56.5,  -55.6,  -56.4,  -58.3,  -56.7,  -57.8,  -57.7,  -57.7,  -57.0,  -58.2,  -57.8,  -58.5,  -57.3,  -58.6,  -58.1,  -59.0,  -57.5,  -58.5,  -58.1,  -58.8,  -57.6,  -58.0,  -57.7,  -58.9,  -57.2,  -58.3,  -57.6,  -58.7,  -57.4,  -58.4,  -57.9,  -59.4,  -57.4,  -58.1,  -57.7,  -58.6,  -57.2,  -59.0,  -57.8,  -59.0,  -57.4,  -57.6,  -57.8,  -58.4,  -57.1
1999/02/26 06:30,  999.0,  999.0,  999.0,  -53.3,  -56.1,  -55.3,  -56.1,  -56.1,  -55.9,  -56.6,  -57.7,  -56.4,  -58.6,  -57.6,  -58.0,  -56.5,  -58.5,  -57.9,  -58.6,  -56.9,  -58.4,  -57.5,  -58.4,  -57.4,  -58.9,  -57.9,  -58.7,  -57.1,  -58.3,  -57.9,  -59.0,  -56.8,  -58.9,  -57.3,  -58.0,  -57.2,  -58.8,  -57.7,  -58.6,  -57.2,  -58.4,  -57.4,  -58.8,  -56.6,  -58.2,  -57.8,  -58.6,  -57.1,  -58.9,  -57.9,  -58.5,  -57.4
1999/02/26 06:40,  999.0,  999.0,  999.0,  999.0,  -54.3,  -55.8,  -55.8,  -56.8,  -55.9,  -54.8,  -58.6,  -56.6,  -57.2,  -58.0,  -58.6,  -57.2,  -58.4,  -58.0,  -58.0,  -57.6,  -58.5,  -57.7,  -59.0,  -57.7,  -58.2,  -58.1,  -58.4,  -57.1,  -58.6,  -58.0,  -58.0,  -57.5,  -58.3,  -58.2,  -58.5,  -57.7,  -58.1,  -58.1,  -58.2,  -57.5,  -58.1,  -57.0,  -58.0,  -57.0,  -58.0,  -57.0,  -58.6,  -57.5,  -57.9,  -57.6,  -58.5,  -57.7
1999/02/26 06:50,  999.0,  999.0,  999.0,  -48.2,  -55.9,  -55.5,  -55.8,  -55.0,  -53.1,  -56.2,  -55.0,  -56.0,  -57.3,  -57.0,  -58.1,  -55.6,  -57.6,  -57.2,  -58.0,  -56.5,  -58.3,  -57.0,  -58.8,  -56.6,  -57.6,  -57.3,  -59.3,  -56.8,  -58.2,  -57.8,  -58.8,  -57.1,  -58.0,  -57.5,  -58.2,  -57.0,  -57.9,  -57.7,  -58.8,  -57.3,  -58.4,  -57.1,  -58.1,  -56.3,  -59.4,  -57.8,  -59.0,  -57.4,  -59.0,  -57.8,  -59.2,  -57.1
1999/02/26 07:00,  999.0,  999.0,  999.0,  -51.2,  -57.2,  -56.0,  -58.4,  -55.4,  -54.7,  -54.8,  -57.3,  -54.4,  -58.1,  -58.0,  -57.8,  -56.4,  -57.2,  -57.4,  -58.1,  -56.5,  -57.9,  -57.8,  -58.3,  -58.3,  -58.0,  -57.8,  -59.1,  -56.7,  -58.8,  -57.5,  -58.4,  -57.4,  -58.2,  -57.8,  -58.4,  -57.1,  -58.4,  -58.0,  -58.8,  -56.9,  -58.5,  -58.0,  -58.8,  -56.7,  -57.6,  -57.9,  -59.3,  -56.6,  -58.7,  -57.5,  -58.2,  -56.7
1999/02/26 07:10,  999.0,  999.0,  999.0,  -55.1,  -58.1,  -56.1,  -56.5,  -55.5,  -55.2,  -56.2,  -57.0,  -56.3,  -58.2,  -57.4,  -58.1,  -56.9,  -58.3,  -57.5,  -57.9,  -57.5,  -59.0,  -57.5,  -58.4,  -56.8,  -58.1,  -57.5,  -59.0,  -57.2,  -58.8,  -57.2,  -58.5,  -57.0,  -58.7,  -58.1,  -58.8,  -57.3,  -59.1,  -57.6,  -58.0,  -56.5,  -58.1,  -57.7,  -58.5,  -57.0,  -58.6,  -57.7,  -58.1,  -57.7,  -57.9,  -58.0,  -58.3,  -57.4
1999/02/26 07:20,  999.0,  999.0,  999.0,  999.0,  -55.2,  -55.0,  -54.4,  -54.8,  -53.9,  -54.8,  -56.7,  -56.0,  -57.8,  -56.8,  -57.4,  -56.2,  -57.9,  -57.3,  -58.3,  -56.5,  -58.1,  -57.0,  -58.8,  -57.1,  -58.2,  -57.6,  -58.6,  -56.9,  -58.2,  -57.5,  -58.1,  -57.5,  -58.2,  -57.9,  -58.6,  -56.8,  -58.4,  -57.2,  -58.0,  -56.4,  -58.6,  -57.2,  -58.7,  -56.8,  -58.3,  -57.8,  -58.0,  -57.1,  -58.7,  -57.9,  -58.5,  -56.9
1999/02/26 07:30,  999.0,  999.0,  999.0,  -58.1,  -53.8,  -51.1,  -50.9,  -51.0,  -52.3,  -53.2,  -54.3,  -54.1,  -55.7,  -55.7,  -56.5,  -55.8,  -57.6,  -57.8,  -58.1,  -56.9,  -58.1,  -57.1,  -58.1,  -56.3,  -58.1,  -58.4,  -58.5,  -57.0,  -58.1,  -57.4,  -58.2,  -57.0,  -58.6,  -57.5,  -58.1,  -56.8,  -58.3,  -57.3,  -58.7,  -57.3,  -58.3,  -57.5,  -58.0,  -56.8,  -57.9,  -57.6,  -58.8,  -57.6,  -58.1,  -58.1,  -58.5,  -57.3
1999/02/26 07:40,  999.0,  999.0,  999.0,  -50.6,  -38.5,  -42.0,  -38.3,  -40.9,  -43.1,  -43.9,  -46.0,  -47.0,  -45.3,  -46.9,  -51.5,  -52.4,  -52.9,  -53.7,  -51.8,  -52.6,  -53.1,  -54.1,  -52.3,  -53.2,  -53.6,  -55.7,  -56.0,  -56.2,  -55.0,  -56.5,  -57.7,  -56.3,  -58.6,  -57.3,  -58.3,  -57.8,  -58.1,  -57.2,  -58.2,  -57.8,  -57.5,  -56.9,  -58.7,  -57.4,  -58.0,  -57.9,  -58.6,  -57.5,  -58.7,  -58.1,  -57.3,  -57.4
1999/02/26 07:50,  999.0,  999.0,  999.0,  -45.4,  -33.7,  -31.9,  -34.7,  -36.4,  -38.5,  -40.0,  -40.9,  -40.5,  -42.2,  -46.0,  -46.0,  -48.0,  -47.8,  -48.3,  -48.4,  -49.1,  -49.1,  -50.3,  -51.4,  -51.2,  -51.7,  -52.1,  -52.6,  -52.8,  -51.6,  -52.2,  -52.6,  -56.8,  -56.2,  -57.1,  -57.9,  -57.3,  -58.4,  -57.8,  -59.1,  -57.6,  -58.1,  -57.5,  -59.0,  -57.5,  -58.4,  -57.9,  -58.2,  -57.1,  -58.1,  -57.5,  -57.8,  -57.1
1999/02/26 08:00,  999.0,  999.0,  999.0,  -52.4,  -39.9,  -38.7,  -40.0,  -41.5,  -43.2,  -44.1,  -45.9,  -47.3,  -49.3,  -51.0,  -52.2,  -49.9,  -50.0,  -51.1,  -51.9,  -52.0,  -52.6,  -52.7,  -55.0,  -53.6,  -56.7,  -56.3,  -57.1,  -55.6,  -57.1,  -56.8,  -58.0,  -55.9,  -57.8,  -57.5,  -58.0,  -56.6,  -58.4,  -57.2,  -58.4,  -56.7,  -58.8,  -57.7,  -58.4,  -56.5,  -58.4,  -57.8,  -58.8,  -57.2,  -58.6,  -57.3,  -58.6,  -56.6
1999/02/26 08:10,  999.0,  999.0,  999.0,  -48.3,  -36.5,  -34.9,  -37.5,  -39.2,  -40.7,  -42.1,  -44.0,  -45.5,  -46.8,  -48.3,  -49.9,  -51.0,  -51.8,  -51.8,  -53.0,  -53.1,  -53.3,  -53.7,  -54.0,  -54.2,  -55.7,  -55.6,  -56.8,  -56.2,  -57.7,  -57.4,  -58.0,  -56.6,  -57.9,  -57.8,  -57.7,  -57.2,  -58.6,  -57.8,  -58.8,  -57.4,  -58.4,  -57.9,  -58.7,  -56.7,  -58.7,  -58.1,  -57.8,  -56.7,  -58.4,  -57.6,  -58.4,  -57.3
1999/02/26 08:20,  999.0,  999.0,  999.0,  -56.1,  -43.7,  -43.7,  -45.9,  -46.8,  -48.6,  -49.6,  -50.7,  -49.8,  -51.1,  -52.8,  -53.5,  -51.6,  -51.7,  -48.7,  -50.9,  -51.7,  -53.1,  -52.8,  -53.1,  -53.2,  -53.6,  -53.2,  -54.5,  -53.7,  -55.2,  -54.8,  -56.4,  -54.2,  -56.0,  -56.9,  -57.7,  -56.7,  -58.5,  -57.7,  -59.5,  -56.8,  -58.0,  -58.2,  -58.7,  -56.7,  -58.5,  -57.6,  -58.3,  -56.5,  -58.4,  -57.9,  -58.5,  -57.2
1999/02/26 08:30,  999.0,  999.0,  999.0,  -45.5,  -37.6,  -35.3,  -35.9,  -37.3,  -35.9,  -38.5,  -39.7,  -39.3,  -41.9,  -40.5,  -41.6,  -42.0,  -42.2,  -42.6,  -42.3,  -42.4,  -42.4,  -42.9,  -43.4,  -44.2,  -44.3,  -44.6,  -45.0,  -45.4,  -45.9,  -46.5,  -46.9,  -47.4,  -48.0,  -48.4,  -49.1,  -49.6,  -50.4,  -50.9,  -51.9,  -51.8,  -52.9,  -53.8,  -54.2,  -54.1,  -55.7,  -55.4,  -56.0,  -56.3,  -56.6,  -56.8,  -57.7,  -57.2
1999/02/26 08:40,  999.0,  999.0,  999.0,  -46.3,  -33.5,  -31.8,  -33.6,  -35.2,  -36.1,  -36.9,  -37.5,  -38.2,  -38.7,  -39.0,  -39.5,  -40.1,  -40.7,  -41.0,  -41.1,  -41.5,  -42.1,  -42.5,  -42.8,  -43.3,  -43.7,  -44.0,  -44.4,  -45.0,  -45.4,  -46.0,  -46.5,  -46.9,  -47.3,  -47.9,  -48.5,  -49.0,  -50.0,  -50.4,  -50.4,  -53.0,  -53.7,  -54.1,  -54.8,  -55.1,  -56.2,  -56.6,  -57.3,  -57.2,  -57.3,  -57.4,  -57.9,  -57.5
1999/02/26 08:50,  999.0,  999.0,  999.0,  -43.3,  -30.8,  -29.5,  -32.6,  -33.4,  -35.1,  -35.6,  -36.3,  -37.2,  -37.8,  -39.8,  -40.9,  -41.8,  -42.6,  -43.0,  -42.4,  -43.6,  -44.9,  -45.9,  -46.6,  -47.5,  -48.2,  -48.8,  -49.3,  -49.8,  -50.3,  -50.4,  -49.6,  -50.2,  -50.7,  -52.5,  -53.1,  -53.3,  -53.9,  -54.0,  -54.5,  -54.1,  -54.1,  -55.1,  -57.6,  -57.3,  -57.9,  -58.1,  -58.5,  -57.7,  -58.3,  -57.8,  -57.9,  -57.5